Location: Bidwell Hollow
(37.7387°N, 90.1707°W)
Time: 23:45:45
(UTC+00:00)

Transit 2A - Pass Details

Date: 11 May 2026
Orbit: 595 x 949 km, 66.7° (Epoch: 6 June)

Event Time Altitude Azimuth Distance (km) Brightness Sun altitude
Rises 06:23:36 0° 346° (NNW) 3,198 10.1 -34.0°
Reaches altitude 10° 06:27:01 10° 8° (N) 2,192 9.2 -33.9°
Maximum altitude 06:30:00 16° 45° (NE) 1,761 8.4 -33.8°
Enters shadow 06:31:26 14° 66° (ENE) 1,827 8.3 -33.8°
